TimeCST,TemperatureF,Dew PointF,Humidity,Sea Level PressureIn,VisibilityMPH,Wind Direction,Wind SpeedMPH,Gust SpeedMPH,PrecipitationIn,Events,Conditions,WindDirDegrees,DateUTC
12:52 AM,44.1,32.0,63,29.50,10.0,SSW,12.7,-,N/A,,Mostly Cloudy,210,2012-01-01 06:52:00
1:52 AM,41.0,35.1,79,29.53,10.0,WSW,19.6,25.3,N/A,,Overcast,250,2012-01-01 07:52:00
2:50 AM,42.8,35.6,76,29.59,9.0,West,20.7,32.2,0.02,Rain,Light Rain,280,2012-01-01 08:50:00
2:52 AM,42.1,36.0,79,29.60,9.0,West,21.9,32.2,0.02,Rain,Light Rain,270,2012-01-01 08:52:00
3:52 AM,39.9,35.1,83,29.63,7.0,NW,26.5,35.7,0.04,Rain,Light Rain,310,2012-01-01 09:52:00
3:59 AM,39.2,35.6,87,29.62,9.0,NW,23.0,35.7,0.00,Rain,Light Rain,310,2012-01-01 09:59:00
4:39 AM,37.4,33.8,87,29.69,10.0,NW,26.5,36.8,0.01,,Overcast,310,2012-01-01 10:39:00
4:52 AM,37.9,32.0,79,29.72,10.0,NW,33.4,46.0,0.01,,Overcast,310,2012-01-01 10:52:00
5:48 AM,37.4,30.2,75,29.80,6.0,NW,32.2,48.3,N/A,,Haze,310,2012-01-01 11:48:00
5:52 AM,37.0,30.9,79,29.81,7.0,NW,31.1,48.3,N/A,,Overcast,310,2012-01-01 11:52:00
5:59 AM,37.4,30.2,75,29.81,8.0,NW,28.8,42.6,N/A,,Overcast,310,2012-01-01 11:59:00
6:52 AM,35.1,27.0,72,29.87,10.0,NW,31.1,40.3,N/A,,Unknown,310,2012-01-01 12:52:00
7:11 AM,33.8,24.8,70,29.89,10.0,WNW,23.0,39.1,N/A,,Mostly Cloudy,300,2012-01-01 13:11:00
7:28 AM,33.8,24.8,70,29.91,10.0,WNW,24.2,34.5,N/A,,Scattered Clouds,300,2012-01-01 13:28:00
7:52 AM,32.0,25.0,75,29.95,10.0,WNW,31.1,38.0,N/A,,Partly Cloudy,290,2012-01-01 13:52:00
8:52 AM,32.0,24.1,73,30.01,10.0,WNW,27.6,38.0,N/A,,Scattered Clouds,300,2012-01-01 14:52:00
9:52 AM,33.1,21.9,64,30.04,10.0,WNW,26.5,48.3,N/A,,Clear,300,2012-01-01 15:52:00
10:52 AM,34.0,21.0,59,30.04,10.0,WNW,33.4,40.3,N/A,,Clear,290,2012-01-01 16:52:00
11:52 AM,33.1,19.0,56,30.05,10.0,WNW,28.8,43.7,N/A,,Mostly Cloudy,300,2012-01-01 17:52:00
12:52 PM,34.0,19.0,54,30.06,10.0,WNW,32.2,47.2,N/A,,Overcast,290,2012-01-01 18:52:00
1:52 PM,33.1,19.0,56,30.09,10.0,WNW,29.9,41.4,N/A,,Overcast,300,2012-01-01 19:52:00
2:52 PM,32.0,19.0,59,30.13,10.0,WNW,25.3,36.8,N/A,,Overcast,300,2012-01-01 20:52:00
3:52 PM,30.9,18.0,59,30.18,10.0,WNW,33.4,42.6,N/A,,Overcast,300,2012-01-01 21:52:00
4:52 PM,30.0,19.0,64,30.21,10.0,WNW,25.3,34.5,0.00,,Overcast,300,2012-01-01 22:52:00
5:52 PM,30.0,17.1,59,30.23,10.0,WNW,29.9,38.0,0.00,,Overcast,290,2012-01-01 23:52:00
6:52 PM,28.9,17.1,61,30.24,10.0,WNW,23.0,34.5,0.00,,Overcast,290,2012-01-02 00:52:00
7:52 PM,28.9,18.0,64,30.25,10.0,WNW,32.2,-,N/A,,Overcast,290,2012-01-02 01:52:00
9:52 PM,27.0,17.1,66,30.25,9.0,NW,26.5,38.0,0.00,Snow,Light Snow,310,2012-01-02 03:52:00
10:52 PM,26.1,16.0,66,30.25,9.0,WNW,26.5,38.0,0.00,Snow,Light Snow,300,2012-01-02 04:52:00
11:52 PM,24.1,12.0,60,30.25,10.0,NW,23.0,39.1,0.00,,Overcast,310,2012-01-02 05:52:00